There are multiple Weather-warnings   Click here for more information


Meteo18 Weather Cam more information Meteo18 Weather Cam


warning for Thunderstorms more information blitzortung!


Rain radar more information rain snow radar


Visit our other weather sites:

Template documentation
and downloads

And another site



Weather Underground History page Text

Daily Summary for June 4, 2016 Units:  Metric    English   Both
« Previous Day
Next Day »
Daily Weekly Monthly Yearly Custom
  High: Low: Average:
Temperature: 17.5 °C 11.8 °C 14 °C
Dew Point: 15.3 °C 11.3 °C 13 °C
Humidity: 98 % 84 % 94 %
Wind Speed: 8.0 km/h 0.0 km/h 0.9 km/h
Wind Gust: 9.7 km/h - -
Wind:- - NE
Pressure: 1016.5 hPa 1013.1 hPa -
Precipitation: 0.0 mm    
Historical Graphs
 
 
Tabular Data for June 4, 2016
Time Temperature Dew Point Pressure Wind Wind Speed Wind Gust Humidity Rainfall Rate (Hourly)
00:02 11.9 °C 11.4 °C 1013.8 hPa Calm   1.6 km/h 97 % 0.0 mm
00:07 11.9 °C 11.4 °C 1013.8 hPa Calm   1.6 km/h 97 % 0.0 mm
00:12 12.0 °C 11.5 °C 1013.8 hPa Calm   1.6 km/h 97 % 0.0 mm
00:17 11.9 °C 11.4 °C 1013.8 hPa Calm   1.6 km/h 97 % 0.0 mm
00:22 12.0 °C 11.5 °C 1013.8 hPa Calm   1.6 km/h 97 % 0.0 mm
00:27 11.9 °C 11.4 °C 1013.8 hPa NE 1.6 km/h 1.6 km/h 97 % 0.0 mm
00:32 12.0 °C 11.5 °C 1013.8 hPa NE 1.6 km/h 1.6 km/h 97 % 0.0 mm
00:37 11.9 °C 11.4 °C 1013.8 hPa Calm   1.6 km/h 97 % 0.0 mm
00:42 12.0 °C 11.5 °C 1013.8 hPa NNE 1.6 km/h 3.2 km/h 97 % 0.0 mm
00:47 12.0 °C 11.5 °C 1013.8 hPa Calm   3.2 km/h 97 % 0.0 mm
00:52 12.0 °C 11.5 °C 1013.8 hPa Calm   3.2 km/h 97 % 0.0 mm
00:57 11.9 °C 11.4 °C 1013.8 hPa Calm   4.8 km/h 97 % 0.0 mm
01:02 11.9 °C 11.4 °C 1013.4 hPa Calm   4.8 km/h 97 % 0.0 mm
01:07 11.9 °C 11.4 °C 1013.4 hPa Calm   3.2 km/h 97 % 0.0 mm
01:17 11.9 °C 11.4 °C 1013.4 hPa Calm   4.8 km/h 97 % 0.0 mm
01:22 11.9 °C 11.4 °C 1013.4 hPa Calm   4.8 km/h 97 % 0.0 mm
01:32 11.9 °C 11.4 °C 1013.4 hPa Calm   3.2 km/h 97 % 0.0 mm
01:37 11.9 °C 11.4 °C 1013.4 hPa Calm   3.2 km/h 97 % 0.0 mm
01:47 11.9 °C 11.4 °C 1013.4 hPa Calm   3.2 km/h 97 % 0.0 mm
01:57 11.9 °C 11.4 °C 1013.4 hPa Calm   3.2 km/h 97 % 0.0 mm
02:02 11.9 °C 11.4 °C 1013.4 hPa Calm   4.8 km/h 97 % 0.0 mm
02:07 11.9 °C 11.4 °C 1013.4 hPa Calm   4.8 km/h 97 % 0.0 mm
02:17 11.9 °C 11.4 °C 1013.4 hPa Calm   1.6 km/h 97 % 0.0 mm
02:22 11.9 °C 11.4 °C 1013.4 hPa Calm     97 % 0.0 mm
02:27 11.9 °C 11.4 °C 1013.4 hPa Calm     97 % 0.0 mm
02:32 11.9 °C 11.4 °C 1013.4 hPa Calm     97 % 0.0 mm
02:37 11.9 °C 11.4 °C 1013.4 hPa Calm     97 % 0.0 mm
02:42 11.9 °C 11.4 °C 1013.4 hPa Calm     97 % 0.0 mm
02:47 11.9 °C 11.4 °C 1013.4 hPa Calm     97 % 0.0 mm
02:52 11.9 °C 11.4 °C 1013.4 hPa Calm     97 % 0.0 mm
02:57 11.9 °C 11.4 °C 1013.4 hPa Calm     97 % 0.0 mm
03:02 11.9 °C 11.4 °C 1013.4 hPa Calm     97 % 0.0 mm
03:07 11.9 °C 11.4 °C 1013.4 hPa Calm     97 % 0.0 mm
03:12 11.9 °C 11.4 °C 1013.4 hPa Calm     97 % 0.0 mm
03:17 11.9 °C 11.4 °C 1013.4 hPa NE 1.6 km/h 3.2 km/h 97 % 0.0 mm
03:22 11.9 °C 11.4 °C 1013.4 hPa Calm   3.2 km/h 97 % 0.0 mm
03:27 11.9 °C 11.4 °C 1013.4 hPa Calm   3.2 km/h 97 % 0.0 mm
03:32 11.8 °C 11.3 °C 1013.4 hPa ESE 1.6 km/h 3.2 km/h 97 % 0.0 mm
03:42 11.8 °C 11.3 °C 1013.4 hPa Calm   3.2 km/h 97 % 0.0 mm
03:47 11.9 °C 11.4 °C 1013.4 hPa NNE 3.2 km/h 3.2 km/h 97 % 0.0 mm
03:52 11.8 °C 11.3 °C 1013.4 hPa Calm   4.8 km/h 97 % 0.0 mm
03:57 11.8 °C 11.3 °C 1013.4 hPa Calm   4.8 km/h 97 % 0.0 mm
04:02 11.9 °C 11.4 °C 1013.1 hPa Calm   4.8 km/h 97 % 0.0 mm
04:12 11.8 °C 11.3 °C 1013.1 hPa Calm   3.2 km/h 97 % 0.0 mm
04:17 11.8 °C 11.3 °C 1013.1 hPa Calm   3.2 km/h 97 % 0.0 mm
04:22 11.8 °C 11.3 °C 1013.1 hPa Calm   3.2 km/h 97 % 0.0 mm
04:27 11.8 °C 11.3 °C 1013.1 hPa Calm   3.2 km/h 97 % 0.0 mm
04:32 11.8 °C 11.3 °C 1013.1 hPa Calm   3.2 km/h 97 % 0.0 mm
04:37 11.8 °C 11.3 °C 1013.1 hPa Calm   1.6 km/h 97 % 0.0 mm
04:42 11.8 °C 11.3 °C 1013.1 hPa Calm   1.6 km/h 97 % 0.0 mm
04:47 11.8 °C 11.5 °C 1013.1 hPa Calm     98 % 0.0 mm
04:52 11.8 °C 11.5 °C 1013.1 hPa Calm     98 % 0.0 mm
04:57 11.8 °C 11.5 °C 1013.1 hPa Calm     98 % 0.0 mm
05:02 11.9 °C 11.6 °C 1013.1 hPa Calm     98 % 0.0 mm
05:12 11.9 °C 11.6 °C 1013.1 hPa Calm     98 % 0.0 mm
05:17 11.9 °C 11.4 °C 1013.1 hPa Calm   1.6 km/h 97 % 0.0 mm
05:22 11.9 °C 11.4 °C 1013.1 hPa Calm   1.6 km/h 97 % 0.0 mm
05:27 11.8 °C 11.3 °C 1013.1 hPa Calm   1.6 km/h 97 % 0.0 mm
05:32 11.8 °C 11.3 °C 1013.1 hPa Calm   1.6 km/h 97 % 0.0 mm
05:37 11.8 °C 11.3 °C 1013.1 hPa Calm   1.6 km/h 97 % 0.0 mm
05:42 11.8 °C 11.3 °C 1013.1 hPa Calm   1.6 km/h 97 % 0.0 mm
05:47 11.8 °C 11.5 °C 1013.1 hPa Calm   1.6 km/h 98 % 0.0 mm
05:52 11.9 °C 11.6 °C 1013.1 hPa Calm     98 % 0.0 mm
05:57 11.9 °C 11.6 °C 1013.1 hPa Calm     98 % 0.0 mm
06:02 11.9 °C 11.6 °C 1013.1 hPa Calm     98 % 0.0 mm
06:07 11.9 °C 11.6 °C 1013.1 hPa Calm     98 % 0.0 mm
06:12 11.9 °C 11.6 °C 1013.1 hPa Calm     98 % 0.0 mm
06:17 11.9 °C 11.4 °C 1013.1 hPa Calm   3.2 km/h 97 % 0.0 mm
06:22 12.0 °C 11.5 °C 1013.1 hPa Calm   3.2 km/h 97 % 0.0 mm
06:32 12.0 °C 11.5 °C 1013.1 hPa Calm   3.2 km/h 97 % 0.0 mm
06:37 12.1 °C 11.8 °C 1013.1 hPa Calm   3.2 km/h 98 % 0.0 mm
06:42 12.1 °C 11.8 °C 1013.1 hPa Calm   3.2 km/h 98 % 0.0 mm
06:52 12.1 °C 11.6 °C 1013.1 hPa NE 1.6 km/h 3.2 km/h 97 % 0.0 mm
06:57 12.1 °C 11.6 °C 1013.1 hPa NE 1.6 km/h 3.2 km/h 97 % 0.0 mm
07:02 12.2 °C 11.7 °C 1013.1 hPa ESE 1.6 km/h 3.2 km/h 97 % 0.0 mm
07:07 12.2 °C 11.7 °C 1013.1 hPa Calm   3.2 km/h 97 % 0.0 mm
07:17 12.2 °C 11.7 °C 1013.4 hPa Calm   3.2 km/h 97 % 0.0 mm
07:22 12.2 °C 11.7 °C 1013.4 hPa Calm   4.8 km/h 97 % 0.0 mm
07:32 12.3 °C 11.8 °C 1013.4 hPa NE 1.6 km/h 3.2 km/h 97 % 0.0 mm
07:37 12.3 °C 11.8 °C 1013.4 hPa Calm   3.2 km/h 97 % 0.0 mm
07:42 12.3 °C 11.8 °C 1013.4 hPa Calm   4.8 km/h 97 % 0.0 mm
07:47 12.3 °C 11.8 °C 1013.4 hPa Calm   6.4 km/h 97 % 0.0 mm
07:52 12.4 °C 11.9 °C 1013.4 hPa NE 1.6 km/h 6.4 km/h 97 % 0.0 mm
07:57 12.4 °C 11.9 °C 1013.4 hPa Calm   6.4 km/h 97 % 0.0 mm
08:02 12.4 °C 11.9 °C 1013.4 hPa East 1.6 km/h 4.8 km/h 97 % 0.0 mm
08:07 12.5 °C 12.0 °C 1013.4 hPa Calm   4.8 km/h 97 % 0.0 mm
08:12 12.6 °C 12.1 °C 1013.4 hPa NE 1.6 km/h 4.8 km/h 97 % 0.0 mm
08:17 12.6 °C 12.0 °C 1013.4 hPa NNE 3.2 km/h 4.8 km/h 96 % 0.0 mm
08:27 12.7 °C 12.1 °C 1013.8 hPa Calm   4.8 km/h 96 % 0.0 mm
08:32 12.8 °C 12.2 °C 1013.8 hPa Calm   4.8 km/h 96 % 0.0 mm
08:37 12.8 °C 12.2 °C 1013.8 hPa Calm   4.8 km/h 96 % 0.0 mm
08:42 12.9 °C 12.3 °C 1013.8 hPa Calm   1.6 km/h 96 % 0.0 mm
08:47 12.9 °C 12.3 °C 1013.8 hPa Calm   1.6 km/h 96 % 0.0 mm
08:52 13.0 °C 12.2 °C 1013.8 hPa NNE 1.6 km/h 4.8 km/h 95 % 0.0 mm
08:57 13.1 °C 12.3 °C 1013.8 hPa NNE 1.6 km/h 4.8 km/h 95 % 0.0 mm
09:02 13.1 °C 12.3 °C 1013.8 hPa NE 4.8 km/h 4.8 km/h 95 % 0.0 mm
09:07 13.2 °C 12.4 °C 1013.8 hPa ENE 1.6 km/h 4.8 km/h 95 % 0.0 mm
09:12 13.2 °C 12.4 °C 1013.8 hPa Calm   4.8 km/h 95 % 0.0 mm
09:17 13.2 °C 12.4 °C 1013.8 hPa Calm   4.8 km/h 95 % 0.0 mm
09:22 13.2 °C 12.4 °C 1013.8 hPa NNE 3.2 km/h 4.8 km/h 95 % 0.0 mm
09:27 13.2 °C 12.3 °C 1013.8 hPa NNE 1.6 km/h 4.8 km/h 94 % 0.0 mm
09:32 13.2 °C 12.4 °C 1013.8 hPa ENE 1.6 km/h 4.8 km/h 95 % 0.0 mm
09:37 13.2 °C 12.4 °C 1013.8 hPa Calm   4.8 km/h 95 % 0.0 mm
09:42 13.3 °C 12.4 °C 1013.8 hPa NE 3.2 km/h 4.8 km/h 94 % 0.0 mm
09:47 13.4 °C 12.6 °C 1013.8 hPa North 1.6 km/h 4.8 km/h 95 % 0.0 mm
09:52 13.5 °C 12.6 °C 1013.8 hPa NE 4.8 km/h 4.8 km/h 94 % 0.0 mm
09:57 13.6 °C 12.7 °C 1013.8 hPa NE 1.6 km/h 6.4 km/h 94 % 0.0 mm
10:02 13.7 °C 12.8 °C 1014.1 hPa Calm   6.4 km/h 94 % 0.0 mm
10:07 13.8 °C 12.9 °C 1014.1 hPa North 1.6 km/h 6.4 km/h 94 % 0.0 mm
10:12 13.9 °C 12.8 °C 1014.1 hPa NE 1.6 km/h 4.8 km/h 93 % 0.0 mm
10:17 14.1 °C 13.0 °C 1014.1 hPa Calm   4.8 km/h 93 % 0.0 mm
10:22 14.2 °C 13.1 °C 1014.1 hPa Calm   4.8 km/h 93 % 0.0 mm
10:27 14.3 °C 13.0 °C 1014.1 hPa NE 3.2 km/h 4.8 km/h 92 % 0.0 mm
10:32 14.3 °C 13.0 °C 1014.1 hPa Calm   4.8 km/h 92 % 0.0 mm
10:37 14.3 °C 13.0 °C 1014.1 hPa Calm   4.8 km/h 92 % 0.0 mm
10:42 14.3 °C 12.9 °C 1014.1 hPa Calm   4.8 km/h 91 % 0.0 mm
10:47 14.3 °C 12.9 °C 1014.1 hPa NNE 1.6 km/h 3.2 km/h 91 % 0.0 mm
10:52 14.4 °C 13.1 °C 1014.1 hPa Calm   4.8 km/h 92 % 0.0 mm
10:57 14.4 °C 12.9 °C 1014.1 hPa NE 3.2 km/h 4.8 km/h 91 % 0.0 mm
11:07 14.4 °C 12.9 °C 1014.1 hPa ENE 1.6 km/h 6.4 km/h 91 % 0.0 mm
11:12 14.3 °C 13.0 °C 1014.4 hPa Calm   4.8 km/h 92 % 0.0 mm
11:17 14.2 °C 12.9 °C 1014.4 hPa Calm   6.4 km/h 92 % 0.0 mm
11:22 14.3 °C 13.0 °C 1014.4 hPa NE 1.6 km/h 6.4 km/h 92 % 0.0 mm
11:27 14.3 °C 13.0 °C 1014.4 hPa Calm   6.4 km/h 92 % 0.0 mm
11:37 14.3 °C 13.0 °C 1014.4 hPa Calm   6.4 km/h 92 % 0.0 mm
11:42 14.2 °C 13.1 °C 1014.4 hPa East 1.6 km/h 6.4 km/h 93 % 0.0 mm
11:47 14.2 °C 13.1 °C 1014.4 hPa Calm   6.4 km/h 93 % 0.0 mm
11:52 14.2 °C 13.1 °C 1014.4 hPa NE 1.6 km/h 4.8 km/h 93 % 0.0 mm
11:57 14.3 °C 13.2 °C 1014.4 hPa NE 1.6 km/h 4.8 km/h 93 % 0.0 mm
12:02 14.5 °C 13.4 °C 1014.4 hPa Calm   4.8 km/h 93 % 0.0 mm
12:07 14.7 °C 13.4 °C 1014.4 hPa Calm   4.8 km/h 92 % 0.0 mm
12:12 14.8 °C 13.3 °C 1014.4 hPa Calm   4.8 km/h 91 % 0.0 mm
12:17 14.8 °C 13.2 °C 1014.4 hPa Calm   3.2 km/h 90 % 0.0 mm
12:22 14.9 °C 13.3 °C 1014.4 hPa Calm   3.2 km/h 90 % 0.0 mm
12:32 15.3 °C 13.5 °C 1014.4 hPa Calm   1.6 km/h 89 % 0.0 mm
12:37 15.3 °C 13.5 °C 1014.4 hPa SE 1.6 km/h 3.2 km/h 89 % 0.0 mm
12:42 15.5 °C 13.7 °C 1014.4 hPa Calm   6.4 km/h 89 % 0.0 mm
12:47 15.7 °C 13.9 °C 1014.4 hPa NE 1.6 km/h 6.4 km/h 89 % 0.0 mm
12:52 15.9 °C 13.7 °C 1014.4 hPa Calm   6.4 km/h 87 % 0.0 mm
12:57 16.1 °C 13.6 °C 1014.4 hPa Calm   4.8 km/h 85 % 0.0 mm
13:02 16.2 °C 14.0 °C 1014.4 hPa Calm   6.4 km/h 87 % 0.0 mm
13:07 16.2 °C 14.0 °C 1014.4 hPa Calm   6.4 km/h 87 % 0.0 mm
13:12 16.1 °C 13.8 °C 1014.4 hPa NE 1.6 km/h 6.4 km/h 86 % 0.0 mm
13:17 16.1 °C 14.1 °C 1014.4 hPa NE 4.8 km/h 8.0 km/h 88 % 0.0 mm
13:22 16.0 °C 14.0 °C 1014.4 hPa NNE 4.8 km/h 8.0 km/h 88 % 0.0 mm
13:27 15.9 °C 13.7 °C 1014.4 hPa Calm   6.4 km/h 87 % 0.0 mm
13:32 15.9 °C 13.7 °C 1014.4 hPa NE 1.6 km/h 6.4 km/h 87 % 0.0 mm
13:37 15.9 °C 13.9 °C 1014.4 hPa Calm   4.8 km/h 88 % 0.0 mm
13:42 15.9 °C 13.4 °C 1014.4 hPa NE 1.6 km/h 4.8 km/h 85 % 0.0 mm
13:52 16.0 °C 14.0 °C 1014.4 hPa Calm   3.2 km/h 88 % 0.0 mm
13:57 16.0 °C 14.2 °C 1014.4 hPa Calm   1.6 km/h 89 % 0.0 mm
14:02 15.9 °C 13.7 °C 1014.4 hPa Calm   1.6 km/h 87 % 0.0 mm
14:07 15.9 °C 14.1 °C 1014.4 hPa NNE 1.6 km/h 3.2 km/h 89 % 0.0 mm
14:12 16.0 °C 13.8 °C 1014.4 hPa Calm   3.2 km/h 87 % 0.0 mm
14:17 16.1 °C 13.9 °C 1014.4 hPa Calm   3.2 km/h 87 % 0.0 mm
14:27 16.7 °C 14.2 °C 1014.4 hPa Calm   1.6 km/h 85 % 0.0 mm
14:32 16.9 °C 14.5 °C 1014.4 hPa Calm   1.6 km/h 86 % 0.0 mm
14:37 16.9 °C 14.4 °C 1014.4 hPa NNE 4.8 km/h 6.4 km/h 85 % 0.0 mm
14:42 16.9 °C 14.7 °C 1014.4 hPa NE 1.6 km/h 6.4 km/h 87 % 0.0 mm
14:47 17.0 °C 14.6 °C 1014.4 hPa NE 1.6 km/h 6.4 km/h 86 % 0.0 mm
14:52 17.2 °C 14.8 °C 1014.4 hPa NE 6.4 km/h 6.4 km/h 86 % 0.0 mm
14:57 17.5 °C 15.3 °C 1014.4 hPa NE 6.4 km/h 6.4 km/h 87 % 0.0 mm
15:07 17.4 °C 14.7 °C 1014.4 hPa NE 3.2 km/h 9.7 km/h 84 % 0.0 mm
15:12 17.3 °C 14.8 °C 1014.4 hPa Calm   9.7 km/h 85 % 0.0 mm
15:17 17.2 °C 14.5 °C 1014.4 hPa Calm   6.4 km/h 84 % 0.0 mm
15:22 16.9 °C 14.2 °C 1014.4 hPa Calm   6.4 km/h 84 % 0.0 mm
15:27 16.8 °C 14.3 °C 1014.4 hPa Calm   1.6 km/h 85 % 0.0 mm
15:32 16.6 °C 14.4 °C 1014.4 hPa Calm   3.2 km/h 87 % 0.0 mm
15:37 16.5 °C 14.3 °C 1014.4 hPa East 1.6 km/h 3.2 km/h 87 % 0.0 mm
15:42 16.3 °C 14.3 °C 1014.4 hPa ESE 1.6 km/h 3.2 km/h 88 % 0.0 mm
15:47 16.2 °C 14.2 °C 1014.4 hPa NE 1.6 km/h 4.8 km/h 88 % 0.0 mm
15:52 16.1 °C 14.1 °C 1014.4 hPa Calm   4.8 km/h 88 % 0.0 mm
15:57 16.0 °C 14.2 °C 1014.4 hPa NNE 4.8 km/h 4.8 km/h 89 % 0.0 mm
16:02 15.7 °C 14.1 °C 1014.4 hPa NE 3.2 km/h 8.0 km/h 90 % 0.0 mm
16:07 15.6 °C 14.1 °C 1014.4 hPa NNE 1.6 km/h 8.0 km/h 91 % 0.0 mm
16:12 15.5 °C 14.0 °C 1014.4 hPa Calm   8.0 km/h 91 % 0.0 mm
16:17 15.6 °C 14.3 °C 1014.4 hPa NE 1.6 km/h 8.0 km/h 92 % 0.0 mm
16:22 15.6 °C 14.1 °C 1014.4 hPa NE 1.6 km/h 6.4 km/h 91 % 0.0 mm
16:27 15.7 °C 14.4 °C 1014.4 hPa Calm   6.4 km/h 92 % 0.0 mm
16:32 15.7 °C 14.2 °C 1014.4 hPa Calm   6.4 km/h 91 % 0.0 mm
16:37 15.8 °C 14.3 °C 1014.4 hPa Calm   6.4 km/h 91 % 0.0 mm
16:42 15.8 °C 14.2 °C 1014.4 hPa Calm   6.4 km/h 90 % 0.0 mm
16:47 15.9 °C 14.3 °C 1014.4 hPa East 1.6 km/h 3.2 km/h 90 % 0.0 mm
16:52 15.8 °C 14.2 °C 1014.4 hPa NE 1.6 km/h 3.2 km/h 90 % 0.0 mm
16:57 15.7 °C 14.1 °C 1014.4 hPa Calm   3.2 km/h 90 % 0.0 mm
17:02 15.6 °C 14.1 °C 1014.4 hPa NNE 1.6 km/h 4.8 km/h 91 % 0.0 mm
17:07 15.6 °C 14.1 °C 1014.4 hPa Calm   4.8 km/h 91 % 0.0 mm
17:12 15.7 °C 14.2 °C 1014.4 hPa NE 1.6 km/h 4.8 km/h 91 % 0.0 mm
17:17 15.7 °C 14.2 °C 1014.4 hPa ESE 3.2 km/h 6.4 km/h 91 % 0.0 mm
17:22 16.0 °C 14.5 °C 1014.4 hPa NNE 3.2 km/h 6.4 km/h 91 % 0.0 mm
17:27 16.1 °C 14.5 °C 1014.4 hPa Calm   6.4 km/h 90 % 0.0 mm
17:32 16.0 °C 14.4 °C 1014.4 hPa NE 3.2 km/h 8.0 km/h 90 % 0.0 mm
17:37 15.9 °C 14.3 °C 1014.4 hPa Calm   8.0 km/h 90 % 0.0 mm
17:42 16.0 °C 14.4 °C 1014.4 hPa ENE 1.6 km/h 8.0 km/h 90 % 0.0 mm
17:52 15.7 °C 14.1 °C 1014.4 hPa North 3.2 km/h 6.4 km/h 90 % 0.0 mm
17:57 15.6 °C 14.1 °C 1014.4 hPa NE 3.2 km/h 6.4 km/h 91 % 0.0 mm
18:02 15.5 °C 14.0 °C 1014.4 hPa Calm   6.4 km/h 91 % 0.0 mm
18:07 15.4 °C 13.9 °C 1014.4 hPa NE 3.2 km/h 6.4 km/h 91 % 0.0 mm
18:12 15.3 °C 14.0 °C 1014.4 hPa NE 8.0 km/h 8.0 km/h 92 % 0.0 mm
18:17 15.3 °C 14.0 °C 1014.4 hPa NE 1.6 km/h 8.0 km/h 92 % 0.0 mm
18:22 15.6 °C 14.3 °C 1014.1 hPa Calm   8.0 km/h 92 % 0.0 mm
18:27 15.7 °C 14.2 °C 1014.1 hPa NNE 3.2 km/h 8.0 km/h 91 % 0.0 mm
18:32 15.7 °C 14.1 °C 1014.4 hPa NE 4.8 km/h 4.8 km/h 90 % 0.0 mm
18:37 15.6 °C 14.0 °C 1014.4 hPa NE 3.2 km/h 8.0 km/h 90 % 0.0 mm
18:42 15.4 °C 13.9 °C 1014.4 hPa NE 3.2 km/h 9.7 km/h 91 % 0.0 mm
18:47 15.3 °C 13.8 °C 1014.4 hPa NE 3.2 km/h 9.7 km/h 91 % 0.0 mm
18:52 15.2 °C 13.9 °C 1014.4 hPa Calm   9.7 km/h 92 % 0.0 mm
18:57 15.1 °C 13.8 °C 1014.4 hPa NNE 1.6 km/h 8.0 km/h 92 % 0.0 mm
19:02 15.1 °C 14.0 °C 1014.4 hPa NE 1.6 km/h 6.4 km/h 93 % 0.0 mm
19:07 15.1 °C 14.0 °C 1014.4 hPa ENE 1.6 km/h 6.4 km/h 93 % 0.0 mm
19:12 15.0 °C 13.9 °C 1014.4 hPa Calm   4.8 km/h 93 % 0.0 mm
19:17 14.9 °C 13.8 °C 1014.4 hPa NE 1.6 km/h 4.8 km/h 93 % 0.0 mm
19:22 14.9 °C 13.8 °C 1014.4 hPa NE 1.6 km/h 4.8 km/h 93 % 0.0 mm
19:32 14.8 °C 13.8 °C 1014.4 hPa NE 3.2 km/h 4.8 km/h 94 % 0.0 mm
19:37 14.8 °C 13.8 °C 1014.4 hPa NE 3.2 km/h 6.4 km/h 94 % 0.0 mm
19:42 14.7 °C 13.7 °C 1014.4 hPa ENE 1.6 km/h 8.0 km/h 94 % 0.0 mm
19:47 14.7 °C 13.7 °C 1014.4 hPa ENE 1.6 km/h 8.0 km/h 94 % 0.0 mm
19:52 14.7 °C 13.7 °C 1014.4 hPa Calm   6.4 km/h 94 % 0.0 mm
19:57 14.7 °C 13.7 °C 1014.4 hPa NE 1.6 km/h 6.4 km/h 94 % 0.0 mm
20:02 14.7 °C 13.7 °C 1014.4 hPa NE 4.8 km/h 6.4 km/h 94 % 0.0 mm
20:07 14.7 °C 13.7 °C 1014.4 hPa Calm   8.0 km/h 94 % 0.0 mm
20:12 14.7 °C 13.7 °C 1014.4 hPa NE 4.8 km/h 9.7 km/h 94 % 0.0 mm
20:17 14.7 °C 13.7 °C 1014.8 hPa Calm   9.7 km/h 94 % 0.0 mm
20:22 14.7 °C 13.7 °C 1014.8 hPa NE 3.2 km/h 8.0 km/h 94 % 0.0 mm
20:32 14.7 °C 13.7 °C 1014.8 hPa NE 3.2 km/h 8.0 km/h 94 % 0.0 mm
20:37 14.7 °C 13.7 °C 1014.8 hPa NE 3.2 km/h 6.4 km/h 94 % 0.0 mm
20:42 14.7 °C 13.9 °C 1014.8 hPa Calm   6.4 km/h 95 % 0.0 mm
20:52 14.7 °C 13.9 °C 1015.1 hPa Calm   6.4 km/h 95 % 0.0 mm
20:57 14.7 °C 13.9 °C 1015.1 hPa Calm   4.8 km/h 95 % 0.0 mm
21:02 14.7 °C 13.9 °C 1015.1 hPa Calm   3.2 km/h 95 % 0.0 mm
21:07 14.7 °C 13.9 °C 1015.5 hPa Calm   3.2 km/h 95 % 0.0 mm
21:12 14.7 °C 13.9 °C 1015.5 hPa Calm   1.6 km/h 95 % 0.0 mm
21:17 14.7 °C 13.9 °C 1015.5 hPa Calm   1.6 km/h 95 % 0.0 mm
21:22 14.7 °C 13.9 °C 1015.5 hPa Calm   1.6 km/h 95 % 0.0 mm
21:27 14.7 °C 13.9 °C 1015.5 hPa Calm   1.6 km/h 95 % 0.0 mm
21:32 14.7 °C 13.9 °C 1015.5 hPa Calm     95 % 0.0 mm
21:37 14.7 °C 13.9 °C 1015.5 hPa Calm     95 % 0.0 mm
21:42 14.7 °C 13.9 °C 1015.5 hPa Calm     95 % 0.0 mm
21:47 14.7 °C 13.9 °C 1015.5 hPa Calm     95 % 0.0 mm
21:52 14.7 °C 13.9 °C 1015.5 hPa Calm     95 % 0.0 mm
21:57 14.7 °C 13.9 °C 1015.8 hPa Calm     95 % 0.0 mm
22:02 14.7 °C 13.9 °C 1015.8 hPa Calm     95 % 0.0 mm
22:07 14.7 °C 13.9 °C 1015.8 hPa Calm     95 % 0.0 mm
22:12 14.7 °C 13.9 °C 1015.8 hPa Calm     95 % 0.0 mm
22:17 14.7 °C 13.9 °C 1016.1 hPa Calm     95 % 0.0 mm
22:22 14.6 °C 13.8 °C 1016.1 hPa Calm     95 % 0.0 mm
22:27 14.6 °C 13.8 °C 1016.1 hPa Calm     95 % 0.0 mm
22:32 14.7 °C 14.1 °C 1016.1 hPa Calm     96 % 0.0 mm
22:37 14.7 °C 13.9 °C 1016.1 hPa Calm     95 % 0.0 mm
22:42 14.6 °C 13.8 °C 1016.1 hPa Calm     95 % 0.0 mm
22:47 14.6 °C 13.8 °C 1016.1 hPa Calm     95 % 0.0 mm
22:52 14.6 °C 14.0 °C 1016.1 hPa Calm     96 % 0.0 mm
22:57 14.6 °C 14.0 °C 1016.1 hPa Calm     96 % 0.0 mm
23:02 14.6 °C 14.0 °C 1016.1 hPa Calm     96 % 0.0 mm
23:07 14.6 °C 14.0 °C 1016.1 hPa Calm     96 % 0.0 mm
23:12 14.6 °C 14.0 °C 1016.1 hPa Calm     96 % 0.0 mm
23:17 14.6 °C 14.0 °C 1016.1 hPa Calm     96 % 0.0 mm
23:22 14.6 °C 14.0 °C 1016.1 hPa Calm     96 % 0.0 mm
23:27 14.5 °C 13.9 °C 1016.5 hPa Calm     96 % 0.0 mm
23:32 14.5 °C 13.9 °C 1016.5 hPa Calm     96 % 0.0 mm
23:37 14.5 °C 13.9 °C 1016.1 hPa Calm     96 % 0.0 mm
23:42 14.4 °C 13.8 °C 1016.5 hPa Calm     96 % 0.0 mm
23:47 14.4 °C 13.8 °C 1016.1 hPa Calm     96 % 0.0 mm
23:52 14.4 °C 13.8 °C 1016.1 hPa Calm     96 % 0.0 mm
23:57 14.4 °C 13.8 °C 1016.1 hPa Calm     96 % 0.0 mm
Meteo18
Compliments of Weather Underground - 4 mb

Script developed by  Jim McMurry - jmcmurry@mwt.net Adapted for the template by  Wim van der Kuil - Leuven-Template.eu

You find our weather info also at:

European Weather Network

Weather Underground

Equipment we use:

Weather-station
Davis Vue

Weather-program
Meteohub

Weather-server
Raspberry PI 2 B+

Provider
1 and 1

Davis Vue

Meteohub

Raspberry PI 2 B+

1 and 1